{"data":{"norad_id":44114,"epoch":"2026-09-18T16:01:59.173536Z","epoch_age_seconds":172718,"freshness":"FRESH","line1":"1 44114U 19020C   26261.66804599 -.00000028  00000+0  00000+0 0  9999","line2":"2 44114   0.0486  12.8845 0002583 166.4370 180.6810  5.00115970136199","mean_motion":5.0011597,"eccentricity":0.0002583,"inclination_deg":0.0486,"raan_deg":12.8845,"arg_perigee_deg":166.437,"mean_anomaly_deg":180.681,"bstar":0,"rev_number":13619,"period_min":287.9332167697,"perigee_km":8062.1502789022,"apogee_km":8069.6120586882,"semimajor_km":14444.018168795,"source":"CELESTRAK","updated_at":"2026-09-20T09:00:35.687013Z"}}